This is the latest recevied weather packets stored in our database for station/object AJ7DN. If no packets are shown the sender has not sent any weather packets the latest 10 day(s).
| Time | Temp. | Humidity | Pressure | Rain* | Wind** | Luminosity | Snow |
|---|---|---|---|---|---|---|---|
| 1777741904 | 12.78° C | 80% | 1021 hPa | 0 mm | - | 121 W/m² | - |
| 1777741601 | 12.78° C | 80% | 1020.5 hPa | 0 mm | - | 101 W/m² | - |
| 1777741298 | 12.78° C | 80% | 1020.7 hPa | 0 mm | - | 75 W/m² | - |
| 1777740994 | 12.78° C | 79% | 1020.6 hPa | 0 mm | - | 62 W/m² | - |
| 1777740691 | 12.78° C | 79% | 1020.6 hPa | 0 mm | - | 68 W/m² | - |
| 1777740387 | 12.78° C | 80% | 1020.6 hPa | 0 mm | - | 69 W/m² | - |
| 1777740085 | 12.78° C | 79% | 1020.6 hPa | 0 mm | - | 68 W/m² | - |
| 1777739781 | 12.78° C | 79% | 1020.6 hPa | 0 mm | - | 65 W/m² | - |
| 1777739477 | 12.78° C | 79% | 1020.6 hPa | 0 mm | - | 79 W/m² | - |
| 1777739174 | 12.22° C | 79% | 1020.7 hPa | 0 mm | - | 85 W/m² | - |
| 1777738871 | 12.78° C | 79% | 1020.6 hPa | 0 mm | - | 84 W/m² | - |
| 1777738568 | 12.22° C | 78% | 1020.3 hPa | 0 mm | - | 85 W/m² | - |
| 1777738265 | 12.22° C | 79% | 1020.8 hPa | 0 mm | - | 83 W/m² | - |
| 1777737963 | 12.22° C | 79% | 1020.7 hPa | 0 mm | - | 92 W/m² | - |
| 1777737662 | 12.22° C | 79% | 1020.7 hPa | 0 mm | - | 110 W/m² | - |
| 1777737360 | 12.22° C | 79% | 1020.7 hPa | 0 mm | - | 122 W/m² | - |
| 1777737057 | 12.22° C | 79% | 1020.7 hPa | 0 mm | - | 121 W/m² | - |
| 1777736752 | 11.67° C | 80% | 1020.7 hPa | 0 mm | - | 123 W/m² | - |
| 1777736124 | 11.67° C | 81% | 1020.9 hPa | 0 mm | - | 105 W/m² | - |
| 1777735821 | 11.67° C | 81% | 1020.8 hPa | 0 mm | - | 105 W/m² | - |
| 1777735519 | 11.67° C | 81% | 1020.7 hPa | 0 mm | - | 95 W/m² | - |
| 1777735216 | 11.67° C | 81% | 1020.6 hPa | 0 mm | - | 85 W/m² | - |
| 1777734913 | 11.67° C | 82% | 1020.8 hPa | 0 mm | - | 77 W/m² | - |
| 1777734610 | 11.11° C | 82% | 1020.8 hPa | 0 mm | - | 73 W/m² | - |
| 1777734308 | 11.11° C | 82% | 1020.6 hPa | 0 mm | - | 70 W/m² | - |
* Rain latest hour (hover to see other rain measurements)
** Current wind speed in m/s (hover to see current wind gust speed)